Flag for U.S.A. Weather past 2 weeks in El Paso, Texas, U.S.A.

73 °F

Partly sunny.

Feels Like: 77 °F
Forecast: 60 / 74 °F
Wind: No wind

Location: El Paso International Airport

Current Time: Oct 7, 2015 at 3:40:20 PM

Latest Report: Oct 7, 2015 at 2:51 PM

Visibility: 10 mi

Pressure: 29.86 "Hg (26.17 "Hg at 1142m altitude)

Humidity: 51%

Dew point: 54 °F

Location of El PasoLocation

Historic Weather in El Paso — Graph


El Paso temperature yesterday

Maximum temperature yesterday: 78 °F (at 4:51 PM)
Minimum temperature yesterday: 60 °F (at 5:51 AM)
Average temperature yesterday: 68 °F

Past Weeks' High & Low Weather Summary

High96 °F (Sep 28, 3:51 PM)94% (Oct 6, 12:53 AM)30.18 "Hg (Oct 6, 12:53 AM)
Low60 °F (Oct 5, 3:51 AM)12% (Sep 28, 3:51 PM)29.49 "Hg (Oct 3, 2:51 PM)
Average75 °F48%29.85 "Hg
* Reported Sep 22 1:51 PM — Oct 7 1:51 PM, El Paso, Weather by CustomWeather, © 2015

Note: Actual official high and low records may vary slightly from our data, if they occured in-between our weather recording intervals... More about our weather records


El Paso weather history for previous 24 hours

Time TempWeatherWind HumidityBarometerVisibility
1:51 PM
Wed, Oct 7
74 °FScattered clouds.3 mph52%29.88 "Hg10 mi
12:51 PM73 °FScattered clouds.5 mph55%29.93 "Hg10 mi
11:51 AM70 °FScattered clouds.3 mph68%29.96 "Hg10 mi
10:51 AM69 °FScattered clouds.5 mph68%29.98 "Hg10 mi
9:51 AM65 °FScattered clouds.7 mph76%29.99 "Hg10 mi
8:51 AM62 °FScattered clouds.10 mph83%29.98 "Hg10 mi
7:51 AM62 °FPassing clouds.10 mph80%29.97 "Hg10 mi
6:51 AM60 °FPassing clouds.9 mph90%29.96 "Hg10 mi
5:51 AM60 °FPassing clouds.9 mph93%29.93 "Hg10 mi
4:51 AM62 °FPassing clouds.7 mph90%29.92 "Hg10 mi
3:51 AM64 °FPartly cloudy.5 mph81%29.91 "Hg10 mi
2:51 AM64 °FPassing clouds.No wind81%29.90 "Hg10 mi
1:51 AM65 °FPassing clouds.9 mph78%29.89 "Hg10 mi
12:51 AM64 °FThunderstorms. Passing clouds.5 mph84%29.92 "Hg10 mi
11:51 PM
Tue, Oct 6
63 °FThunderstorms. Overcast.5 mph87%29.95 "Hg10 mi
10:51 PM66 °FThunderstorms. Mostly cloudy.10 mph84%29.92 "Hg3 mi
9:51 PM68 °FPassing clouds.3 mph73%29.91 "Hg10 mi
8:51 PM69 °FPassing clouds.8 mph70%29.93 "Hg10 mi
7:51 PM72 °FPassing clouds.9 mph68%29.91 "Hg10 mi
6:51 PM73 °FPassing clouds.6 mph59%29.89 "Hg10 mi
5:51 PM76 °FScattered clouds.8 mph54%29.88 "Hg10 mi
4:51 PM78 °FScattered clouds.6 mph45%29.89 "Hg10 mi
3:51 PM76 °FScattered clouds.6 mph48%29.92 "Hg10 mi
Weather by CustomWeather, © 2015

See weather overviewHow to use our weather pages